Elkins, WV

5:31 PM EDT on August 19, 2017 (GMT -0400)
Elkins-Randolph County

Weather History for KEKN - November, 2011

Change the Weather History Date:

Friday, November 11, 2011

  Actual Average Record
Temperature  
Mean Temperature 32 °F 44 °F  
Max Temperature 40 °F 55 °F 76 °F (1915)
Min Temperature 23 °F 32 °F 11 °F (1957)
Degree Days  
Heating Degree Days 33 22  
Month to date heating degree days 233 221  
Since 1 July heating degree days 764 812  
Cooling Degree Days 0 0  
Month to date cooling degree days 0 0  
Year to date cooling degree days 699 475  
Moisture  
Dew Point 24 °F    
Average Humidity 69    
Maximum Humidity 88    
Minimum Humidity 50    
Precipitation  
Precipitation 0.01 in 0.10 in 0.71 in (1947)
Month to date precipitation 0.02 1.19  
Year to date precipitation 44.38 40.48  
Snow  
Snow T in - - ()
Month to date snowfall T  
Since 1 September snowfall 1.1  
Snow Depth 0.00 in    
Sea Level Pressure  
Sea Level Pressure 30.03 in    
Wind  
Wind Speed 7 mph (West)    
Max Wind Speed 20 mph    
Max Gust Speed 29 mph    
Visibility 9 miles    
Events Rain , Snow    
T = Trace of Precipitation, MM = Missing Value Source: NWS Daily Summary

Daily Weather History Graph

Daily Weather History Graph

Search for Another Location

Airport or City:

Trip Planner

Search our weather history database for the weather conditions in past years. The results will help you decide how hot, cold, wet, or windy it might be!

Date:

Astronomy

Nov. 11, 2011 Rise Set
Actual Time 6:57 AM EST 5:09 PM EST
Civil Twilight 6:29 AM EST 5:37 PM EST
Nautical Twilight 5:57 AM EST 6:09 PM EST
Astronomical Twilight 5:25 AM EST 6:40 PM EST
Moon 5:37 PM EST (11/11) 7:43 AM EST (11/11)
Length of Visible Light 11h 08m
Length of Day
10h 11m
Full, 99% of the Moon is Illuminated
Nov 11
Full
Nov 18
Last Quarter
Nov 25
New
Dec 2
First Quarter
Dec 10
Full

Hourly Weather History & Observations

Time (EST) Temp. Windchill Dew Point Humidity Pressure Visibility Wind Dir Wind Speed Gust Speed Precip Events Conditions
12:00 AM 33.8 °F 25.8 °F 28.4 °F 81% 29.92 in 6.0 mi West 10.4 mph 19.6 mph 0.00 in Snow Light Snow
12:51 AM 33.1 °F 24.9 °F 26.1 °F 75% 29.96 in 10.0 mi WNW 10.4 mph 16.1 mph 0.00 in   Overcast
1:09 AM 33.8 °F 27.7 °F 24.8 °F 70% 29.91 in 10.0 mi West 6.9 mph 16.1 mph N/A   Overcast
1:21 AM 32.0 °F 22.1 °F 23.0 °F 69% 29.91 in 10.0 mi West 13.8 mph 20.7 mph N/A   Overcast
1:33 AM 32.0 °F 26.4 °F 24.8 °F 75% 29.90 in 9.0 mi West 5.8 mph 16.1 mph 0.00 in Snow Light Snow
1:51 AM 32.0 °F 24.2 °F 25.0 °F 75% 29.96 in 9.0 mi NW 9.2 mph - 0.00 in Snow Light Snow
2:12 AM 32.0 °F 21.2 °F 23.0 °F 69% 29.91 in 10.0 mi West 16.1 mph 24.2 mph 0.00 in   Overcast
2:51 AM 30.9 °F 22.2 °F 23.0 °F 72% 29.97 in 6.0 mi WNW 10.4 mph 19.6 mph 0.00 in Snow Light Snow
3:20 AM 30.2 °F 20.2 °F 23.0 °F 75% 29.92 in 10.0 mi West 12.7 mph 20.7 mph 0.01 in   Overcast
3:51 AM 30.9 °F 21.2 °F 23.0 °F 72% 29.97 in 10.0 mi West 12.7 mph 18.4 mph 0.01 in   Overcast
4:20 AM 30.2 °F 21.3 °F 23.0 °F 75% 29.92 in 10.0 mi West 10.4 mph 18.4 mph N/A   Overcast
4:51 AM 30.9 °F 23.5 °F 23.0 °F 72% 29.98 in 10.0 mi West 8.1 mph - N/A   Overcast
5:51 AM 30.0 °F 21.1 °F 23.0 °F 75% 30.00 in 10.0 mi WNW 10.4 mph 18.4 mph 0.00 in   Overcast
6:51 AM 30.0 °F 21.7 °F 24.1 °F 79% 30.02 in 10.0 mi West 9.2 mph - 0.00 in   Overcast
7:51 AM 30.0 °F 22.4 °F 25.0 °F 82% 30.05 in 9.0 mi WNW 8.1 mph - 0.00 in   Overcast
8:51 AM 30.9 °F 21.2 °F 25.0 °F 79% 30.07 in 5.0 mi West 12.7 mph 17.3 mph 0.00 in Snow Light Snow
9:51 AM 32.0 °F 24.2 °F 26.1 °F 79% 30.08 in 5.0 mi West 9.2 mph - 0.00 in Snow Light Snow
10:51 AM 33.1 °F 24.4 °F 26.1 °F 75% 30.08 in 10.0 mi West 11.5 mph 21.9 mph 0.00 in Rain Light Rain
11:51 AM 34.0 °F 25.0 °F 26.1 °F 73% 30.08 in 10.0 mi West 12.7 mph 19.6 mph 0.00 in   Overcast
12:51 PM 35.1 °F 26.4 °F 25.0 °F 67% 30.07 in 10.0 mi WNW 12.7 mph 16.1 mph N/A   Overcast
1:42 PM 37.4 °F 29.8 °F 26.6 °F 65% 30.01 in 10.0 mi NW 11.5 mph 21.9 mph N/A   Overcast
1:51 PM 36.0 °F 27.5 °F 24.1 °F 62% 30.07 in 10.0 mi West 12.7 mph 21.9 mph N/A   Overcast
2:51 PM 37.0 °F 32.4 °F 23.0 °F 57% 30.07 in 10.0 mi Variable 5.8 mph - N/A   Mostly Cloudy
3:51 PM 39.0 °F 34.8 °F 23.0 °F 53% 30.08 in 10.0 mi WSW 5.8 mph - N/A   Mostly Cloudy
4:51 PM 36.0 °F 31.1 °F 21.0 °F 55% 30.08 in 10.0 mi SW 5.8 mph - N/A   Scattered Clouds
5:51 PM 30.9 °F - 21.0 °F 67% 30.11 in 10.0 mi Calm Calm - N/A   Clear
6:51 PM 28.9 °F - 21.0 °F 72% 30.12 in 10.0 mi Calm Calm - N/A   Clear
7:51 PM 27.0 °F - 21.9 °F 81% 30.12 in 10.0 mi Calm Calm - N/A   Clear
8:51 PM 26.1 °F - 21.0 °F 81% 30.14 in 10.0 mi Calm Calm - N/A   Clear
9:51 PM 25.0 °F - 21.0 °F 85% 30.14 in 10.0 mi Calm Calm - N/A   Clear
10:51 PM 25.0 °F - 21.0 °F 85% 30.14 in 10.0 mi Calm Calm - N/A   Clear
11:51 PM 25.0 °F - 21.0 °F 85% 30.14 in 10.0 mi Calm Calm - N/A   Clear